Regional Weather Roundup
Issued by NWS State College, PA

Home | Current Version | Previous Version | Graphics & Text | Print | Product List | Glossary On
Versions: 1 2 3 4 5 6 7 8 9 10 11 12 13 14 15 16 17 18 19 20 21 22 23 24 25 26 27 28 29 30 31 32 33 34 35 36 37 38 39 40 41 42 43 44 45 46 47 48 49 50
000
ASUS41 KCTP 270003
RWRCTP

REGIONAL WEATHER ROUNDUP
NATIONAL WEATHER SERVICE STATE COLLEGE PA
800 PM EDT MON JUN 26 2017

Note: "fair" indicates few or no clouds below 12,000 feet with no
significant weather and/or obstructions to visibility.

* = STATION THAT DOES NOT REPORT PRECIPITATION /E.G. RAIN...SNOW...ETC/
    THUNDER OR FOG.

PAZ002>004-007>009-013>016-020>023-029>032-270100-
WESTERN PENNSYLVANIA

CITY           SKY/WX    TMP DP  RH WIND       PRES   REMARKS
ERIE           CLEAR     67  47  48 W13G20    29.97F
MEADVILLE      CLOUDY    63  46  54 W7        30.01S
FRANKLIN*      MOCLDY    61  50  67 S5        30.02F
NEW CASTLE     FAIR      64  50  60 SW6       30.02S
BEAVER COUNTY  CLEAR     64  46  52 SW8       30.03S
BUTLER*        CLOUDY    64  48  55 SW7       30.02F
PITTSBURGH INT CLOUDY    67  49  52 W6        30.02F
PITTSBURGH     PTCLDY    67  47  48 SW14      30.02F
INDIANA*       MOCLDY    66  46  48 W8G17     30.05R
LATROBE        MOCLDY    66  48  52 W14       30.05
WASHINGTON CO* PTCLDY    66  48  52 W5        30.05F
$$

PAZ004>006-010>012-017>019-024>028-033>037-041-042-045-046-049>053-270100-
CENTRAL PENNSYLVANIA

CITY           SKY/WX    TMP DP  RH WIND       PRES   REMARKS
BRADFORD       CLOUDY    58  51  78 SW3       30.03S
DUBOIS         CLOUDY    56  50  80 NW8       30.04S
CLEARFIELD     MOCLDY    62  51  67 NW9G22    30.03R
JOHNSTOWN      CLOUDY    64  44  48 W13G22    30.05R
ALTOONA        MOCLDY    68  50  52 W12       30.02S
STATE COLLEGE  PTCLDY    68  50  52 W9        29.99R
WILLIAMSPORT   CLEAR     72  49  44 S6        29.94S
SELINSGROVE    MOCLDY    74  50  42 CALM      29.97F
FT INDIANTOWN  CLEAR     70  54  57 CALM      29.98S
CAPITAL CITY   PTCLDY    75  47  36 S3        29.97S
HARRISBURG     PTCLDY    75  53  46 SW5       29.97S
YORK           PTCLDY    73  51  46 S3        29.99S
$$

PAZ038>040-043-044-047-048-054-055-060>062-067>071-270100-
EASTERN PENNSYLVANIA

CITY           SKY/WX    TMP DP  RH WIND       PRES   REMARKS
SCRANTON       CLEAR     73  46  38 SW10      29.97R
MOUNT POCONO   CLEAR     65  46  50 SW7       30.01S
ALLENTOWN      CLEAR     73  47  39 SW7       29.98S
QUAKERTOWN*    CLEAR     73  48  40 SW3       30.00S
READING        CLEAR     75  48  38 SW7       29.97S
LANCASTER      CLEAR     75  48  38 SW6       29.98F
COATESVILLE    CLEAR     72  48  43 CALM      30.02S
POTTSTOWN      CLEAR     74  49  41 S3        30.00F
BLUE BELL      CLEAR     72  48  43 SW8       30.00S
DOYLESTOWN     CLEAR     73  46  38 VRB5      29.98F
WILLOW GROVE   NOT AVBL
NORTH PHILA    CLEAR     77  48  35 W12       30.00F
PHILADELPHIA   PTCLDY    77  49  37 S8        29.99F
$$




USA.gov is the U.S. government's official web portal to all federal, state and local government web resources and services.